Weather History for Abbeville, LA

Change the Weather History Date:

Monday, December 24, 2012

  Actual Average (KARA) Record (KARA)
Temperature  
Mean Temperature 70 °F 53 °F  
Max Temperature 78 °F 63 °F 78 °F (1964)
Min Temperature 61 °F 43 °F 12 °F (1989)
Degree Days  
Heating Degree Days 0 12  
Month to date heating degree days 263  
Since 1 July heating degree days 458  
Cooling Degree Days 4 0  
Month to date cooling degree days 19  
Year to date cooling degree days 2811  
Growing Degree Days 20 (Base 50)    
Moisture  
Dew Point 66 °F    
Average Humidity 90    
Maximum Humidity 100    
Minimum Humidity 62    
Precipitation  
Precipitation 0.00 in 0.13 in 1.29 in (2006)
Month to date precipitation 4.07  
Year to date precipitation 58.76  
Sea Level Pressure  
Sea Level Pressure 29.90 in    
Wind  
Wind Speed 8 mph (SW)    
Max Wind Speed 16 mph    
Max Gust Speed 24 mph    
Visibility 9 miles    
Events      
T = Trace of Precipitation, MM = Missing Value Source: NWS Daily Summary

Daily Weather History Graph

Daily Weather History Graph

Search for Another Location

Airport:

Trip Planner

Search our weather history database for the weather conditions in past years. The results will help you decide how hot, cold, wet, or windy it might be!

Date:

Astronomy

Dec. 24, 2012 Rise Set
Actual Time 7:01 AM CST 5:14 PM CST
Civil Twilight 6:35 AM CST 5:41 PM CST
Nautical Twilight 6:05 AM CST 6:11 PM CST
Astronomical Twilight 5:36 AM CST 6:40 PM CST
Moon 2:37 PM CST (12/24) 3:46 AM CST (12/24)
Length of Visible Light 11h 06m
Length of Day
10h 13m
Waxing Gibbous, 88% of the Moon is Illuminated
Dec 24
Waxing Gibbous
Dec 28
Full
Jan 4
Last Quarter
Jan 11
New
Jan 18
First Quarter

Hourly Weather History & Observations

Time (CST) Temp. Dew Point Humidity Pressure Visibility Wind Dir Wind Speed Gust Speed Precip Events Conditions
12:15 AM 67.5 °F 66.2 °F 96% 29.94 in 10.0 mi SSE 6.9 mph - N/A   Overcast
12:35 AM 66.6 °F 66.2 °F 99% 29.94 in 10.0 mi South 4.6 mph - N/A   Overcast
12:55 AM 66.2 °F 66.2 °F 100% 29.93 in 10.0 mi South 5.8 mph - N/A   Overcast
1:15 AM 65.7 °F 65.7 °F 100% 29.93 in 10.0 mi South 4.6 mph - N/A   Mostly Cloudy
1:35 AM 67.5 °F 67.1 °F 99% 29.92 in 10.0 mi SSW 6.9 mph - N/A   Mostly Cloudy
1:55 AM 68.2 °F 67.1 °F 96% 29.92 in 10.0 mi SSW 6.9 mph - N/A   Scattered Clouds
2:15 AM 68.5 °F 66.9 °F 95% 29.92 in 10.0 mi SSW 10.4 mph - N/A   Mostly Cloudy
2:35 AM 68.9 °F 67.1 °F 94% 29.91 in 10.0 mi SSW 8.1 mph - N/A   Mostly Cloudy
2:55 AM 68.9 °F 67.1 °F 94% 29.91 in 10.0 mi SSW 10.4 mph - N/A   Scattered Clouds
3:15 AM 69.1 °F 67.5 °F 95% 29.91 in 10.0 mi SSW 10.4 mph - N/A   Mostly Cloudy
3:35 AM 69.3 °F 67.5 °F 94% 29.90 in 10.0 mi SW 11.5 mph - N/A   Scattered Clouds
3:55 AM 68.9 °F 67.5 °F 95% 29.90 in 10.0 mi SW 11.5 mph - N/A   Scattered Clouds
4:15 AM 69.1 °F 67.6 °F 95% 29.90 in 10.0 mi SW 9.2 mph - N/A   Mostly Cloudy
4:35 AM 68.9 °F 68.0 °F 97% 29.90 in 10.0 mi SW 9.2 mph - N/A   Mostly Cloudy
4:55 AM 68.9 °F 68.2 °F 98% 29.91 in 10.0 mi WSW 10.4 mph - N/A   Mostly Cloudy
5:15 AM 68.5 °F 68.0 °F 98% 29.91 in 10.0 mi SW 9.2 mph - N/A   Mostly Cloudy
5:35 AM 68.4 °F 68.0 °F 99% 29.91 in 10.0 mi SW 8.1 mph - N/A   Mostly Cloudy
5:55 AM 68.4 °F 68.0 °F 99% 29.91 in 10.0 mi SW 6.9 mph - N/A   Mostly Cloudy
6:15 AM 68.4 °F 68.4 °F 100% 29.92 in 10.0 mi WSW 9.2 mph - N/A   Overcast
6:35 AM 68.9 °F 68.5 °F 99% 29.92 in 10.0 mi WSW 9.2 mph - N/A   Overcast
6:55 AM 68.5 °F 68.4 °F 99% 29.93 in 10.0 mi WSW 6.9 mph - N/A   Overcast
7:15 AM 68.9 °F 68.9 °F 100% 29.94 in 10.0 mi WSW 8.1 mph - N/A   Overcast
7:35 AM 68.5 °F 68.5 °F 100% 29.94 in 10.0 mi West 8.1 mph - N/A   Overcast
7:55 AM 68.9 °F 68.9 °F 100% 29.95 in 7.0 mi West 9.2 mph - N/A   Overcast
8:15 AM 68.9 °F 68.9 °F 100% 29.95 in 7.0 mi West 6.9 mph - N/A   Overcast
8:35 AM 69.3 °F 69.3 °F 100% 29.95 in 10.0 mi West 11.5 mph - N/A   Overcast
8:55 AM 69.4 °F 69.4 °F 100% 29.96 in 10.0 mi West 11.5 mph - N/A   Overcast
9:15 AM 70.3 °F 69.8 °F 98% 29.97 in 10.0 mi West 8.1 mph - N/A   Overcast
9:35 AM 70.9 °F 69.8 °F 96% 29.97 in 10.0 mi West 8.1 mph 16.1 mph N/A   Overcast
9:55 AM 72.7 °F 70.2 °F 92% 29.97 in 10.0 mi WSW 9.2 mph - N/A   Overcast
10:15 AM 72.9 °F 69.8 °F 90% 29.97 in 10.0 mi WSW 8.1 mph - N/A   Overcast
10:35 AM 73.4 °F 68.9 °F 86% 29.96 in 10.0 mi West 12.7 mph - N/A   Overcast
10:55 AM 73.0 °F 68.4 °F 85% 29.95 in 10.0 mi West 12.7 mph 18.4 mph N/A   Overcast
11:15 AM 73.6 °F 68.4 °F 84% 29.95 in 10.0 mi West 10.4 mph - N/A   Overcast
11:35 AM 74.7 °F 68.2 °F 80% 29.94 in 10.0 mi West 10.4 mph - N/A   Mostly Cloudy
11:55 AM 74.3 °F 66.6 °F 77% 29.93 in 10.0 mi West 15.0 mph 24.2 mph N/A   Mostly Cloudy
12:15 PM 75.0 °F 66.2 °F 74% 29.92 in 10.0 mi West 15.0 mph 19.6 mph N/A   Scattered Clouds
12:35 PM 75.9 °F 66.4 °F 72% 29.90 in 10.0 mi WSW 15.0 mph 19.6 mph N/A   Scattered Clouds
12:55 PM 77.7 °F 66.6 °F 68% 29.89 in 10.0 mi West 13.8 mph - N/A   Scattered Clouds
1:15 PM 77.4 °F 64.9 °F 65% 29.88 in 10.0 mi West 13.8 mph 20.7 mph N/A   Scattered Clouds
1:35 PM 77.7 °F 65.1 °F 65% 29.87 in 10.0 mi WSW 15.0 mph 20.7 mph N/A   Scattered Clouds
1:55 PM 78.3 °F 64.8 °F 63% 29.87 in 10.0 mi West 15.0 mph - N/A   Scattered Clouds
2:15 PM 78.4 °F 64.4 °F 62% 29.86 in 10.0 mi WSW 16.1 mph - N/A   Scattered Clouds
2:35 PM 78.4 °F 64.4 °F 62% 29.86 in 10.0 mi West 12.7 mph 19.6 mph N/A   Scattered Clouds
2:55 PM 76.6 °F 64.8 °F 67% 29.85 in 10.0 mi West 11.5 mph 16.1 mph N/A   Scattered Clouds
3:15 PM 77.7 °F 64.4 °F 63% 29.85 in 10.0 mi SW 10.4 mph - N/A   Scattered Clouds
3:35 PM 77.4 °F 64.4 °F 64% 29.85 in 10.0 mi WSW 9.2 mph - N/A   Scattered Clouds
3:55 PM 77.0 °F 64.2 °F 65% 29.85 in 10.0 mi WSW 8.1 mph - N/A   Clear
4:15 PM 76.1 °F 63.5 °F 65% 29.85 in 10.0 mi SW 8.1 mph - N/A   Clear
4:35 PM 75.0 °F 64.6 °F 70% 29.85 in 10.0 mi SSW 9.2 mph - N/A   Clear
4:55 PM 73.0 °F 64.6 °F 75% 29.85 in 10.0 mi SW 6.9 mph - N/A   Clear
5:15 PM 71.1 °F 64.6 °F 80% 29.85 in 10.0 mi SSW 4.6 mph - N/A   Clear
5:35 PM 70.0 °F 64.9 °F 84% 29.85 in 10.0 mi SSW 3.5 mph - N/A   Clear
5:55 PM 69.3 °F 64.9 °F 86% 29.85 in 10.0 mi SSW 3.5 mph - N/A   Clear
6:15 PM 68.0 °F 65.3 °F 91% 29.86 in 10.0 mi SSW 3.5 mph - N/A   Clear
6:35 PM 67.3 °F 65.3 °F 93% 29.85 in 10.0 mi SSW 3.5 mph - N/A   Clear
6:55 PM 66.0 °F 65.1 °F 97% 29.86 in 10.0 mi South 3.5 mph - N/A   Clear
7:15 PM 66.4 °F 66.0 °F 99% 29.86 in 10.0 mi South 3.5 mph - N/A   Clear
7:35 PM 64.9 °F 64.9 °F 100% 29.86 in 10.0 mi SSE 3.5 mph - N/A   Clear
7:55 PM 62.8 °F 62.8 °F 100% 29.85 in 10.0 mi Calm Calm - N/A   Clear
8:15 PM 63.5 °F 63.5 °F 100% 29.85 in 5.0 mi SSE 4.6 mph - N/A   Clear
8:35 PM 61.5 °F 61.5 °F 100% 29.85 in 7.0 mi South 4.6 mph - N/A   Clear
8:55 PM 62.8 °F 62.8 °F 100% 29.86 in 10.0 mi South 5.8 mph - N/A   Clear
9:15 PM 62.6 °F 62.6 °F 100% 29.86 in 7.0 mi SSE 5.8 mph - N/A   Clear
9:35 PM 63.5 °F 63.5 °F 100% 29.86 in 7.0 mi SSE 6.9 mph - N/A   Clear
9:55 PM 63.1 °F 63.1 °F 100% 29.86 in 7.0 mi SSE 6.9 mph - N/A   Scattered Clouds
10:15 PM 63.5 °F 63.5 °F 100% 29.86 in 7.0 mi SSE 8.1 mph - N/A   Scattered Clouds
10:35 PM 64.4 °F 64.4 °F 100% 29.86 in 7.0 mi SSE 6.9 mph - N/A   Mostly Cloudy
10:55 PM 64.6 °F 64.6 °F 100% 29.85 in 7.0 mi SSE 6.9 mph - N/A   Scattered Clouds
11:15 PM 65.3 °F 65.3 °F 100% 29.85 in 7.0 mi SSE 8.1 mph - N/A   Mostly Cloudy
11:35 PM 65.3 °F 65.3 °F 100% 29.84 in 5.0 mi SSE 6.9 mph - N/A   Overcast
11:55 PM 65.3 °F 65.3 °F 100% 29.84 in 4.0 mi SSE 6.9 mph - N/A   Overcast